Torna al catalogo

STARLINK-32264

AttivoComunicazioniVLEO
NORAD 61642·PAYLOAD·🇺🇸 United States

Lanciato Oct 23, 2024 da Cape Canaveral Space Force Station

Loading…

Prossimi Passaggi (prossime 24 ore)

TLE

AggiornatoSource: CelesTrak SupGP

Epoca: Sep 14, 2026, 21:39 UTC

1 61642C 24191X   26257.90256944  .00111160  00000+0  63647-3 0  2572
2 61642  42.9835 122.5671 0027350 245.3032 278.9693 15.77228958    11

Traccia STARLINK-32264 in tempo reale con AllMySat

Download on the App Store